{"data":{"norad_id":68880,"epoch":"2026-09-19T23:13:36.924672Z","epoch_age_seconds":61381,"freshness":"FRESH","line1":"1 68880U 26095S   26262.96778848  .00002119  00000+0  30680-3 0  9999","line2":"2 68880  51.8957 169.0310 0001346  86.5870 273.5246 14.79938183 21965","mean_motion":14.79938183,"eccentricity":0.0001346,"inclination_deg":51.8957,"raan_deg":169.031,"arg_perigee_deg":86.587,"mean_anomaly_deg":273.5246,"bstar":0.0003068,"rev_number":2196,"period_min":97.301361404228,"perigee_km":628.57603724245,"apogee_km":630.46249830974,"semimajor_km":7007.6562677761,"source":"CELESTRAK","updated_at":"2026-09-20T09:00:24.538299Z"}}